Погода в Кубанке

Россия / Оренбургская область     52°17′52″N   54°27′23″E
темп.,
°C
ветер,
м/с
пор.,
м/с
влажн.,
%
обл.,
%
осадки,
мм/ч
давл.,
гПа
погр.,
м
9 мая, вс
вс923:00+13св22615 0.0 101614
02:00+12с11585 0.0 101610
05:00+12св22607 0.0 101610
08:00+15ссз11524 0.0 101686
11:00+19ссз22381 0.0 10161322
14:00+21ссз22321 0.0 10152413
17:00+22ссз22309 0.0 10152487
20:00+19всв224374 0.0 101626
10 мая, пн
пн1023:00+16в33475 0.0 101622
02:00+14вюв225618 0.0 101717
05:00+13в226137 0.0 101710
08:00+15в476053 0.0 1019265
11:00+19вюв5647100 0.0 1019714
14:00+21вюв563932 0.0 10191902
17:00+22вюв453794 0.0 10192294
20:00+19в61054100 0.0 1020335
11 мая, вт
вт1123:00+16в386338 0.0 1021242
02:00+14в367168 0.0 1022103
05:00+12в386714 0.0 1023127
08:00+15вюв476016 0.0 1024230
11:00+20юв565238 0.0 1026859
14:00+22вюв4441100 0.0 10262061
17:00+22в553984 0.0 10262263
20:00+19вюв4851100 0.0 1026188
12 мая, ср
ср1223:00+16вюв335044 0.0 102824
02:00+13всв33525 0.0 102834
05:00+12вюв225610 0.0 102919
08:00+15юв355492 0.0 1029195
11:00+20юв563671 0.0 1029926
14:00+22вюв56306 0.0 10291714
17:00+22вюв562913 0.0 10281887
20:00+19в344515 0.0 102876
13 мая, чт
чт1323:00+15в33465 0.0 102921
02:00+14в224946 0.0 102914
05:00+13в22515 0.0 102911
08:00+17вюв23470 0.0 1029120
11:00+22юв23330 0.0 1029965
14:00+24юв33270 0.0 10281738
17:00+25юв33279 0.0 10271884
20:00+22вюв22405 0.0 102714